GW3202 Weather Reports


time (UTC)temp
F
wind
direction
speed
knots
gust
knots
rain 1hr
in
rain 24hr
in
rain mn
in
humidity
%
barometer
mb
20260506231005 82 151 8.7 22.6 0.00 0.00 0.00 45 1017.2
20260506230006 82 154 4.3 19.1 0.00 0.00 0.00 47 1017.3
20260506224005 82 172 13.0 20.9 0.00 0.00 0.00 48 1017.2
20260506223004 83 155 10.4 17.4 0.00 0.00 0.00 48 1017.2
20260506222005 83 163 8.7 20.9 0.00 0.00 0.00 48 1017.3
20260506221025 84 202 5.2 24.3 0.00 0.00 0.00 49 1017.4
20260506220004 84 167 11.3 26.9 0.00 0.00 0.00 50 1017.4
20260506214004 85 146 5.2 19.1 0.00 0.00 0.00 49 1017.7
20260506213004 85 151 10.4 20.9 0.00 0.00 0.00 47 1017.6
20260506211004 85 166 7.0 21.7 0.00 0.00 0.00 44 1017.7
20260506210004 87 160 6.1 18.2 0.00 0.00 0.00 43 1017.8
20260506205004 86 153 10.4 18.2 0.00 0.00 0.00 43 1017.9
20260506204004 86 119 1.7 21.7 0.00 0.00 0.00 43 1017.9
20260506203004 86 137 5.2 19.1 0.00 0.00 0.00 44 1018.0
20260506202004 86 158 5.2 17.4 0.00 0.00 0.00 42 1018.2
20260506201004 86 142 7.0 17.4 0.00 0.00 0.00 43 1018.3
20260506200005 87 196 7.8 15.6 0.00 0.00 0.00 39 1018.5
20260506195004 86 241 4.3 13.9 0.00 0.00 0.00 40 1018.8
20260506194004 87 200 4.3 13.0 0.00 0.00 0.00 38 1018.7
20260506193004 87 257 4.3 13.0 0.00 0.00 0.00 39 1018.7
20260506191004 87 223 2.6 14.8 0.00 0.00 0.00 40 1019.0
20260506190005 86 177 4.3 14.8 0.00 0.00 0.00 41 1019.3
20260506185004 87 237 5.2 12.2 0.00 0.00 0.00 39 1019.3
20260506184004 88 195 2.6 10.4 0.00 0.00 0.00 39 1019.4
20260506183005 86 191 3.5 8.7 0.00 0.00 0.00 40 1019.5
20260506182004 86 251 3.5 8.7 0.00 0.00 0.00 40 1019.7
20260506181006 86 222 3.5 8.7 0.00 0.00 0.00 41 1019.7
20260506180003 85 204 3.5 13.0 0.00 0.00 0.00 42 1019.7
20260506175003 83 169 5.2 13.0 0.00 0.00 0.00 45 1019.8
20260506173003 83 158 2.6 13.0 0.00 0.00 0.00 44 1020.0
20260506172003 82 159 6.1 14.8 0.00 0.00 0.00 44 1020.2
20260506171003 82 162 4.3 12.2 0.00 0.00 0.00 44 1020.3
20260506165003 82 175 3.5 10.4 0.00 0.00 0.00 46 1020.4
20260506164003 83 163 4.3 8.7 0.00 0.00 0.00 44 1020.3
20260506163003 81 133 5.2 8.7 0.00 0.00 0.00 47 1020.4
20260506162003 81 239 4.3 7.8 0.00 0.00 0.00 47 1020.3
20260506161003 79 302 2.6 4.3 0.00 0.00 0.00 50 1020.5
20260506160002 79 200 0.9 4.3 0.00 0.00 0.00 51 1020.4
20260506155003 77 52 1.7 2.6 0.00 0.00 0.00 53 1020.4
20260506154003 78 168 0.0 1.7 0.00 0.00 0.00 52 1020.3
20260506153003 75 274 0.9 4.3 0.00 0.00 0.00 55 1020.3
20260506152002 74 328 1.7 4.3 0.00 0.00 0.00 56 1020.4
20260506151003 74 76 0.9 2.6 0.00 0.00 0.00 56 1020.2
20260506150002 72 343 1.7 1.7 0.00 0.00 0.00 58 1020.4
20260506145002 73 123 0.9 2.6 0.00 0.00 0.00 58 1020.4
20260506144003 70 42 0.9 2.6 0.00 0.00 0.00 62 1020.3
20260506143002 70 351 0.0 2.6 0.00 0.00 0.00 63 1020.4
20260506142003 70 50 1.7 2.6 0.00 0.00 0.00 63 1020.3
20260506141003 70 57 0.9 2.6 0.00 0.00 0.00 64 1020.2
20260506140003 69 139 0.9 2.6 0.00 0.00 0.00 67 1020.2
20260506135002 68 63 0.9 2.6 0.00 0.00 0.00 66 1020.2
20260506134003 66 124 1.7 4.3 0.00 0.00 0.00 69 1020.2
20260506132003 64 118 0.9 1.7 0.00 0.00 0.00 74 1020.1
20260506130003 61 121 1.7 2.6 0.00 0.00 0.00 79 1019.9
20260506124003 60 122 0.9 2.6 0.00 0.00 0.00 81 1019.7
20260506123003 61 133 1.7 2.6 0.00 0.00 0.00 81 1019.8
20260506122003 61 131 0.9 1.7 0.00 0.00 0.00 81 1019.6
20260506121002 61 113 0.0 2.6 0.00 0.00 0.00 79 1019.6
20260506120003 60 150 1.7 1.7 0.00 0.00 0.00 80 1019.7
20260506115003 60 127 0.0 1.7 0.00 0.00 0.00 79 1019.4
20260506114002 60 133 1.7 1.7 0.00 0.00 0.00 79 1019.5
20260506113002 60 277 0.9 2.6 0.00 0.00 0.00 79 1019.5
20260506112002 61 92 0.0 1.7 0.00 0.00 0.00 80 1019.1
20260506111003 61 129 0.9 2.6 0.00 0.00 0.00 80 1019.3
20260506104002 62 129 1.7 4.3 0.00 0.00 0.00 79 1019.1
20260506103003 61 114 1.7 2.6 0.00 0.00 0.00 80 1019.0
20260506102003 61 105 0.0 0.9 0.00 0.00 0.00 79 1019.1
20260506101004 62 58 0.9 1.7 0.00 0.00 0.00 78 1019.1
20260506100003 62 26 0.0 1.7 0.00 0.00 0.00 78 1019.1
20260506095003 62 83 0.9 1.7 0.00 0.00 0.00 78 1019.0
20260506094003 62 90 0.0 2.6 0.00 0.00 0.00 78 1019.0
20260506093003 63 109 1.7 2.6 0.00 0.00 0.00 77 1019.2
20260506092003 63 133 0.9 2.6 0.00 0.00 0.00 77 1019.0
20260506091003 63 114 0.9 1.7 0.00 0.00 0.00 76 1019.1
20260506090003 63 92 0.9 1.7 0.00 0.00 0.00 76 1019.0
20260506084003 63 105 0.9 1.7 0.00 0.00 0.00 76 1019.2
20260506083003 63 118 0.9 1.7 0.00 0.00 0.00 76 1019.3
20260506082003 63 170 0.0 0.9 0.00 0.00 0.00 75 1019.4
20260506081003 64 249 0.0 1.7 0.00 0.00 0.00 75 1019.4
20260506073003 64 255 0.0 1.7 0.00 0.00 0.00 74 1019.8
20260506072004 64 129 0.9 2.6 0.00 0.00 0.00 73 1019.8
20260506071007 65 122 1.7 1.7 0.00 0.00 0.00 74 1019.8
20260506062004 64 249 0.0 1.7 0.00 0.00 0.00 72 1019.9
20260506061003 65 294 0.9 2.6 0.00 0.00 0.00 71 1020.0
20260506051003 70 125 1.7 10.4 0.00 0.00 0.00 67 1019.9
20260506045003 70 68 0.0 5.2 0.00 0.00 0.00 67 1019.7
20260506044004 71 0 2.6 8.7 0.00 0.00 0.00 66 1019.5
20260506042003 71 152 9.6 17.4 0.00 0.00 0.00 66 1019.3
20260506040003 71 141 7.0 20.0 0.00 0.00 0.00 64 1019.0
20260506035003 72 154 14.8 20.0 0.00 0.00 0.00 63 1018.8
20260506034004 72 124 8.7 20.0 0.00 0.00 0.00 64 1018.8
20260506032032 72 137 8.7 22.6 0.00 0.00 0.00 62 1018.5
20260506031009 72 149 11.3 20.0 0.00 0.00 0.00 62 1018.3
20260506030007 73 146 12.2 20.9 0.00 0.00 0.00 62 1018.4
20260506025009 73 146 10.4 22.6 0.00 0.00 0.00 63 1018.2
20260506024003 74 153 10.4 20.0 0.00 0.00 0.00 62 1017.9
20260506022004 75 103 8.7 19.1 0.00 0.00 0.00 61 1017.8
20260506021003 75 150 8.7 18.2 0.00 0.00 0.00 61 1017.8
20260506020003 75 153 8.7 17.4 0.00 0.00 0.00 60 1017.8
20260506015003 75 146 8.7 19.1 0.00 0.00 0.00 60 1017.9
20260506014003 76 177 10.4 18.2 0.00 0.00 0.00 60 1017.5
20260506013003 76 138 7.8 18.2 0.00 0.00 0.00 58 1017.3
20260506012003 77 148 10.4 17.4 0.00 0.00 0.00 56 1017.3
20260506011003 78 157 7.8 18.2 0.00 0.00 0.00 53 1017.3
20260506010003 79 127 6.1 18.2 0.00 0.00 0.00 51 1017.1
20260506005003 79 180 3.5 19.1 0.00 0.00 0.00 49 1017.0
20260506004003 80 153 8.7 20.0 0.00 0.00 0.00 47 1017.2
20260506003003 81 158 7.8 17.4 0.00 0.00 0.00 44 1017.0
20260506002003 82 152 7.0 20.9 0.00 0.00 0.00 42 1017.2
20260506001003 82 157 7.0 20.0 0.00 0.00 0.00 40 1017.0
20260506000003 83 132 7.8 19.1 0.00 0.00 0.00 40 1016.7
20260505235003 83 163 7.8 19.1 0.00 0.00 0.00 41 1016.7
20260505234004 83 139 9.6 20.0 0.00 0.00 0.00 41 1016.9
20260505233003 84 179 5.2 17.4 0.00 0.00 0.00 41 1016.8
20260505232003 84 160 8.7 13.9 0.00 0.00 0.00 42 1016.9